Regional Weather Roundup
Issued by NWS

Home | Current Version | Previous Version | Text Only | Print | Product List | Glossary Off
Versions: 1 2 3 4 5 6 7 8 9 10 11 12 13 14 15 16 17 18 19 20 21 22 23 24 25 26 27 28 29 30 31 32 33 34 35 36 37 38 39 40 41 42 43 44 45 46 47 48 49 50

000
ASUS43 KIND 240809
RWRIN

WEATHER ROUNDUP FOR INDIANA
NATIONAL WEATHER SERVICE INDIANAPOLIS IN
400 AM EDT THU MAY 24 2018

NOTE: "FAIR" INDICATES FEW OR NO CLOUDS BELOW 12,000 FEET WITH NO
SIGNIFICANT WEATHER AND/OR OBSTRUCTIONS TO VISIBILITY.

* - STATION DOES NOT REPORT WEATHER SUCH AS PRECIPITATION OR FOG.

+ - STATION NOT QUALITY CONTROLLED BY THE NATIONAL WEATHER SERVICE.
    USE DATA WITH CAUTION...ESPECIALLY DEWPOINT AND RELATIVE
    HUMIDITY OBSERVATIONS.

INZ001>003-010>013-019-020-240900-
NORTHWEST INDIANA

CITY           SKY/WX    TMP DP  RH WIND       PRES   REMARKS
GARY /AIRPORT/ FAIR      55  55 100 CALM      30.17S FOG
KNOX *+        FAIR      55  55 100 CALM      30.18S
LA PORTE +     FAIR      57  55  93 CALM      30.19S
MICHIGAN CITY+ FAIR      52  52 100 CALM      30.18F
MONTICELLO +   FAIR      59  55  86 CALM      30.17S
RENSSELAER +   FAIR      61  52  72 E3        30.17S
VALPARAISO     FAIR      60  56  86 E5        30.18S

$$

LMZ046-743>745-240900-
SOUTHERN LAKE MICHIGAN

STATION/POSITION TIME  TEMP    WIND        PRES    WAVE
                       AIR SEA DIR/SP/G            HT
                 (UTC) (F)     (DEG/KT/KT) (MB)    (FT)
BURNS HARBOR     0740   58        CALM     1022.0F
MICHIGAN CITY    0740   60     100/  3/  4   N/A
5NW MICH CITY    0800   58 56   90/  4/  4   N/A     0

$$

INZ004-005-014>016-021>024-240900-
NORTH CENTRAL INDIANA

CITY           SKY/WX    TMP DP  RH WIND       PRES   REMARKS
GOSHEN         FAIR      55  53  93 CALM      30.19S
LOGANSPORT +   FAIR      57  52  82 CALM      30.18F
ROCHESTER +    FAIR      55  54  94 CALM      30.19S
SOUTH BEND     FAIR      54  51  90 CALM      30.19F
WARSAW +       FAIR      55  55 100 CALM      30.20S

$$

INZ006>009-017-018-025>027-240900-
NORTHEAST INDIANA

CITY           SKY/WX    TMP DP  RH WIND       PRES   REMARKS
ANGOLA *+      FAIR      55  54  94 CALM      30.20S
AUBURN +       FAIR      54  52  94 CALM      30.21S
FORT WAYNE     FAIR      56  53  90 CALM      30.20S
HUNTINGTON +   FAIR      56  53  89 CALM      30.19S
KENDALLVILLE + FAIR      56  51  81 CALM      30.21S

$$

INZ028-029-035-036-043>045-051>053-240900-
WEST CENTRAL INDIANA

CITY           SKY/WX    TMP DP  RH WIND       PRES   REMARKS
CRAWFORDSVL +  FAIR      59  53  80 CALM      30.18R
GREENCASTLE +  FAIR      61  52  72 CALM      30.18R
LAFAYETTE      FAIR      57  54  89 CALM      30.17R
TERRE HAUTE    FAIR      62  56  80 E3        30.16R

$$

INZ030>032-037>040-046>048-054>057-064-065-240900-
CENTRAL INDIANA

CITY           SKY/WX    TMP DP  RH WIND       PRES   REMARKS
ANDERSON       FAIR      56  53  88 CALM      30.19S
FISHERS *+     FAIR      59  55  88 CALM      30.18
FRANKFORT +    FAIR      62  54  73 SE6       30.19S
GREENWOOD *+   FAIR      62  53  72 E3        30.18S
INDIANAPOLIS   FAIR      65  53  65 E8        30.16F
-EAGLE CREEK   FAIR      63  53  70 CALM      30.16F
KOKOMO +       FAIR      61  53  75 E6        30.19S
MARION +       FAIR      57  52  83 CALM      30.19S
MT COMFORT *+  FAIR      59  55  88 E6        30.18F
SHELBYVILLE    FAIR      61  53  75 E7        30.16F
ZIONSVILLE +   FAIR      59  54  83 CALM      30.18S

$$

INZ033-034-041-042-049-050-058-059-240900-
EAST CENTRAL INDIANA

CITY           SKY/WX    TMP DP  RH WIND       PRES   REMARKS
MUNCIE         FAIR      59  51  75 SE3       30.19S
RICHMOND +     FAIR      57  54  88 E7        30.20S

$$

INZ060-061-067>069-081>083-085>088-240900-
SOUTHWEST INDIANA

CITY           SKY/WX    TMP DP  RH WIND       PRES   REMARKS
EVANSVILLE     FAIR      67  60  78 N5        30.13R
HUNTINGBURG +  FAIR      62  58  86 NE5       30.14R
WASHINGTON +   FAIR      63  55  74 CALM      30.15R

$$

INZ062-063-066-070>080-084-089>092-240900-
SOUTH CENTRAL AND SOUTHEAST INDIANA

CITY           SKY/WX    TMP DP  RH WIND       PRES   REMARKS
BATESVILLE +   CLEAR     55  55 100 CALM      30.18S
BEDFORD +      FAIR      63  54  72 NE3       30.15S
BLOOMINGTON    FAIR      60  56  86 CALM      30.16R
FRENCH LICK *+ FAIR      61  50  67 CALM      30.15S
MADISON *+     FAIR      63  55  77 E3        30.18S
SEYMOUR +      FAIR      63  55  77 E5        30.16S

$$




USA.gov is the U.S. government's official web portal to all federal, state and local government web resources and services.